Language: 


Des rapports , des résumés tant et plus, au choix de chacun....


Données statistiques de la station
Quotidien Rapport Décembre 28, 2017 Unités:  Anglais    Métrique   les deux
« Précédent Jour
Suivant Jour »
Quotidien Hebdomadaire Mensuel Annuel Actuel
  Haut: Bas: Moyen:
Température: TemperatureC °F -1.0 °F 2.2 °F
Pt de rosée: DewpointC °F -3.0 °F 0.7 °F
Humidité: Humidity % 71 % 89 %
Vitesse du vent: WindSpeedKMH mph 0.0 mph 6.9 mph
Rafales: WindSpeedGustKMH mph - -
Vent:- - West
Pression: PressurehPa in 994.1 in -
Précipitation: 0.0 in    
Historical Graphs
 
 
Données statistiques pour Décembre 28, 2017
Heure Température Point de rosée Pression Vent Vitesse du vent Refales Humidité Pluie (taux horaire)
TemperatureC °F DewpointC °F PressurehPa in Calm     Humidity % HourlyPrecipMM in
00:01 4.0 °F 2.0 °F 994.1 in WNW 8.7 mph 13.0 mph 85 % 0.0 in
00:03 4.0 °F 2.0 °F 994.1 in NNW 7.6 mph 13.0 mph 85 % 0.0 in
00:07 3.9 °F 2.0 °F 994.1 in West 9.7 mph 13.0 mph 86 % 0.0 in
00:10 3.9 °F 2.0 °F 994.1 in NW 8.7 mph 17.2 mph 85 % 0.0 in
00:15 3.8 °F 2.0 °F 994.1 in WNW 9.3 mph 17.2 mph 85 % 0.0 in
00:20 3.7 °F 2.0 °F 994.1 in SSW 7.9 mph 14.0 mph 85 % 0.0 in
00:21 3.7 °F 2.0 °F 994.1 in SSW 7.9 mph 14.0 mph 85 % 0.0 in
00:23 3.7 °F 2.0 °F 994.1 in NNW 9.0 mph 14.0 mph 85 % 0.0 in
00:28 3.7 °F 2.0 °F 995.1 in NW 15.8 mph 16.9 mph 85 % 0.0 in
00:29 3.7 °F 2.0 °F 995.1 in NW 11.6 mph 16.9 mph 85 % 0.0 in
00:34 3.6 °F 2.0 °F 995.1 in West 6.4 mph 19.8 mph 85 % 0.0 in
00:36 3.6 °F 2.0 °F 995.1 in WNW 10.5 mph 19.8 mph 85 % 0.0 in
00:41 3.5 °F 2.0 °F 995.1 in West 4.7 mph 19.8 mph 85 % 0.0 in
00:42 3.5 °F 2.0 °F 995.1 in WNW 7.6 mph 15.8 mph 86 % 0.0 in
00:44 3.5 °F 2.0 °F 995.1 in West 10.1 mph 13.7 mph 86 % 0.0 in
00:49 3.3 °F 1.0 °F 995.1 in WNW 6.1 mph 13.0 mph 86 % 0.0 in
00:52 3.3 °F 1.0 °F 995.1 in West 5.5 mph 13.0 mph 86 % 0.0 in
00:57 3.1 °F 1.0 °F 995.1 in WNW 5.5 mph 13.0 mph 86 % 0.0 in
01:03 3.0 °F 1.0 °F 995.1 in West 4.7 mph 13.0 mph 86 % 0.0 in
01:08 2.8 °F 1.0 °F 995.1 in West 8.7 mph 13.0 mph 87 % 0.0 in
01:10 2.8 °F 1.0 °F 995.1 in NNW 5.8 mph 11.9 mph 87 % 0.0 in
01:12 2.7 °F 1.0 °F 996.2 in West 7.6 mph 11.9 mph 87 % 0.0 in
01:16 2.7 °F 1.0 °F 996.2 in SW 9.3 mph 12.6 mph 87 % 0.0 in
01:19 2.6 °F 1.0 °F 996.2 in West 14.0 mph 14.0 mph 87 % 0.0 in
01:24 2.5 °F 1.0 °F 996.2 in WNW 10.5 mph 15.8 mph 88 % 0.0 in
01:29 2.4 °F 1.0 °F 996.2 in West 6.9 mph 15.8 mph 88 % 0.0 in
01:34 2.3 °F 1.0 °F 996.2 in West 13.7 mph 19.8 mph 89 % 0.0 in
01:37 2.3 °F 1.0 °F 996.2 in West 10.1 mph 19.8 mph 89 % 0.0 in
01:38 2.3 °F 1.0 °F 996.2 in WNW 5.5 mph 19.8 mph 89 % 0.0 in
01:43 2.3 °F 1.0 °F 996.2 in West 7.9 mph 17.2 mph 89 % 0.0 in
01:48 2.4 °F 1.0 °F 996.2 in West 12.6 mph 16.3 mph 90 % 0.0 in
01:49 2.4 °F 1.0 °F 996.2 in West 7.9 mph 16.3 mph 90 % 0.0 in
01:51 2.4 °F 1.0 °F 996.2 in West 11.9 mph 16.3 mph 90 % 0.0 in
01:52 2.4 °F 1.0 °F 996.2 in West 13.7 mph 16.3 mph 90 % 0.0 in
01:57 2.5 °F 2.0 °F 996.8 in West 9.3 mph 19.8 mph 91 % 0.0 in
02:02 2.5 °F 2.0 °F 996.8 in West 12.2 mph 19.8 mph 91 % 0.0 in
02:05 2.5 °F 2.0 °F 996.8 in West 12.2 mph 16.9 mph 91 % 0.0 in
02:07 2.5 °F 2.0 °F 996.8 in West 10.5 mph 16.9 mph 91 % 0.0 in
02:11 2.5 °F 2.0 °F 996.8 in WSW 5.8 mph 17.2 mph 91 % 0.0 in
02:16 2.5 °F 2.0 °F 996.8 in WNW 17.7 mph 17.7 mph 91 % 0.0 in
02:21 2.6 °F 2.0 °F 996.8 in West 14.0 mph 22.4 mph 91 % 0.0 in
02:22 2.6 °F 2.0 °F 996.8 in West 14.0 mph 22.4 mph 91 % 0.0 in
02:28 2.6 °F 2.0 °F 996.8 in West 13.7 mph 22.4 mph 91 % 0.0 in
02:34 2.6 °F 2.0 °F 996.8 in WNW 4.7 mph 17.2 mph 91 % 0.0 in
02:35 2.6 °F 2.0 °F 996.8 in West 11.6 mph 17.2 mph 91 % 0.0 in
02:40 2.6 °F 2.0 °F 996.8 in West 6.4 mph 20.6 mph 91 % 0.0 in
02:47 2.4 °F 1.0 °F 996.8 in West 5.8 mph 20.6 mph 90 % 0.0 in
02:52 2.4 °F 1.0 °F 996.8 in West 13.7 mph 17.7 mph 90 % 0.0 in
02:53 2.4 °F 1.0 °F 996.8 in WNW 9.7 mph 17.7 mph 90 % 0.0 in
02:58 2.3 °F 1.0 °F 996.8 in West 10.5 mph 17.7 mph 89 % 0.0 in
02:59 2.3 °F 1.0 °F 996.8 in West 5.5 mph 17.7 mph 90 % 0.0 in
03:04 2.3 °F 1.0 °F 996.8 in West 12.6 mph 15.8 mph 90 % 0.0 in
03:05 2.3 °F 1.0 °F 996.8 in NNW 11.9 mph 15.8 mph 90 % 0.0 in
03:10 2.4 °F 1.0 °F 996.8 in West 9.7 mph 15.8 mph 90 % 0.0 in
03:14 2.4 °F 1.0 °F 996.8 in NNW 16.6 mph 16.6 mph 90 % 0.0 in
03:19 2.4 °F 1.0 °F 996.8 in WSW 5.5 mph 16.6 mph 90 % 0.0 in
03:20 2.4 °F 1.0 °F 996.8 in West 10.5 mph 16.6 mph 90 % 0.0 in
03:21 2.5 °F 1.0 °F 996.8 in West 8.7 mph 16.6 mph 90 % 0.0 in
03:25 2.5 °F 1.0 °F 996.8 in West 6.9 mph 16.9 mph 90 % 0.0 in
03:31 2.5 °F 1.0 °F 996.8 in WNW 14.3 mph 17.2 mph 90 % 0.0 in
03:36 2.5 °F 1.0 °F 996.8 in WSW 5.5 mph 17.2 mph 90 % 0.0 in
03:37 2.5 °F 1.0 °F 996.8 in West 7.9 mph 17.2 mph 90 % 0.0 in
03:42 2.4 °F 1.0 °F 996.2 in West 13.0 mph 16.3 mph 90 % 0.0 in
03:45 2.4 °F 1.0 °F 996.2 in WSW 13.0 mph 16.3 mph 90 % 0.0 in
03:47 2.4 °F 1.0 °F 996.2 in West 13.0 mph 17.2 mph 90 % 0.0 in
03:53 2.5 °F 2.0 °F 996.2 in South 10.5 mph 20.1 mph 91 % 0.0 in
03:54 2.5 °F 2.0 °F 996.2 in West 16.3 mph 20.1 mph 91 % 0.0 in
03:59 2.6 °F 2.0 °F 996.8 in WSW 15.1 mph 20.1 mph 91 % 0.0 in
04:00 2.6 °F 2.0 °F 996.8 in West 6.1 mph 20.1 mph 91 % 0.0 in
04:03 2.6 °F 2.0 °F 996.8 in West 4.0 mph 16.6 mph 91 % 0.0 in
04:08 2.6 °F 2.0 °F 996.8 in WSW 12.2 mph 16.6 mph 91 % 0.0 in
04:14 2.7 °F 2.0 °F 996.8 in WSW 23.3 mph 23.3 mph 91 % 0.0 in
04:19 2.7 °F 2.0 °F 996.8 in West 13.0 mph 23.3 mph 91 % 0.0 in
04:24 2.6 °F 1.0 °F 996.8 in WSW 10.1 mph 21.2 mph 90 % 0.0 in
04:29 2.4 °F 1.0 °F 997.9 in WSW 9.0 mph 21.2 mph 90 % 0.0 in
04:31 2.4 °F 1.0 °F 997.9 in WSW 12.6 mph 18.0 mph 90 % 0.0 in
04:33 2.3 °F 1.0 °F 997.9 in West 11.9 mph 18.0 mph 90 % 0.0 in
04:37 2.3 °F 1.0 °F 997.9 in WNW 11.1 mph 14.0 mph 90 % 0.0 in
04:42 2.3 °F 1.0 °F 997.9 in West 12.6 mph 14.0 mph 90 % 0.0 in
04:44 2.3 °F 1.0 °F 997.9 in WSW 9.0 mph 13.7 mph 91 % 0.0 in
04:45 2.3 °F 1.0 °F 997.9 in WSW 16.6 mph 16.6 mph 91 % 0.0 in
04:50 2.3 °F 1.0 °F 997.9 in West 12.6 mph 16.6 mph 91 % 0.0 in
04:51 2.2 °F 1.0 °F 997.9 in West 13.7 mph 16.6 mph 91 % 0.0 in
04:57 2.1 °F 1.0 °F 997.9 in West 8.7 mph 16.9 mph 90 % 0.0 in
04:58 2.1 °F 1.0 °F 997.9 in WSW 8.7 mph 16.9 mph 90 % 0.0 in
05:03 2.0 °F 1.0 °F 997.9 in WSW 9.0 mph 16.9 mph 90 % 0.0 in
05:09 1.6 °F 0.0 °F 997.9 in WSW 11.6 mph 13.7 mph 90 % 0.0 in
05:11 1.5 °F 0.0 °F 997.9 in WSW 7.6 mph 11.9 mph 90 % 0.0 in
05:16 1.4 °F 0.0 °F 997.9 in WSW 10.5 mph 13.7 mph 90 % 0.0 in
05:20 1.3 °F 0.0 °F 997.9 in WSW 9.3 mph 13.7 mph 90 % 0.0 in
05:21 1.3 °F 0.0 °F 997.9 in West 14.0 mph 14.0 mph 90 % 0.0 in
05:22 1.2 °F 0.0 °F 997.9 in WSW 12.2 mph 14.0 mph 90 % 0.0 in
05:27 1.2 °F 0.0 °F 997.9 in West 13.7 mph 14.0 mph 91 % 0.0 in
05:28 1.1 °F 0.0 °F 997.9 in West 7.6 mph 14.0 mph 91 % 0.0 in
05:33 1.1 °F 0.0 °F 997.9 in WSW 7.6 mph 13.7 mph 91 % 0.0 in
05:34 1.1 °F 0.0 °F 997.9 in WSW 11.6 mph 13.7 mph 91 % 0.0 in
05:39 1.0 °F 0.0 °F 997.9 in West 6.4 mph 13.0 mph 92 % 0.0 in
05:40 1.0 °F 0.0 °F 997.9 in West 11.6 mph 13.0 mph 92 % 0.0 in
05:45 0.9 °F 0.0 °F 997.9 in West 5.8 mph 13.0 mph 93 % 0.0 in
05:47 0.9 °F 0.0 °F 997.9 in West 12.6 mph 12.6 mph 93 % 0.0 in
05:52 0.8 °F 0.0 °F 997.9 in SSW 9.7 mph 12.6 mph 93 % 0.0 in
05:53 0.8 °F 0.0 °F 997.9 in West 9.7 mph 13.0 mph 93 % 0.0 in
05:58 0.8 °F 0.0 °F 997.9 in WSW 9.7 mph 13.0 mph 94 % 0.0 in
05:59 0.8 °F 0.0 °F 997.9 in West 9.3 mph 13.0 mph 94 % 0.0 in
06:00 0.8 °F 0.0 °F 997.9 in West 9.7 mph 13.7 mph 94 % 0.0 in
06:04 0.8 °F 0.0 °F 997.9 in WSW 10.1 mph 13.7 mph 94 % 0.0 in
06:09 0.7 °F 0.0 °F 997.9 in WSW 7.9 mph 10.1 mph 94 % 0.0 in
06:14 0.6 °F 0.0 °F 997.9 in West 7.6 mph 10.5 mph 94 % 0.0 in
06:17 0.6 °F 0.0 °F 997.9 in West 4.7 mph 10.5 mph 94 % 0.0 in
06:20 0.6 °F 0.0 °F 997.9 in Calm   10.5 mph 94 % 0.0 in
06:21 0.6 °F 0.0 °F 997.9 in Calm   10.5 mph 94 % 0.0 in
06:24 0.5 °F 0.0 °F 997.9 in West 9.0 mph 9.7 mph 95 % 0.0 in
06:29 0.5 °F 0.0 °F 997.9 in WSW 5.8 mph 9.7 mph 95 % 0.0 in
06:33 0.4 °F 0.0 °F 997.9 in Calm   9.7 mph 95 % 0.0 in
06:38 0.3 °F 0.0 °F 997.9 in WSW 9.0 mph 9.0 mph 95 % 0.0 in
06:43 0.3 °F 0.0 °F 998.9 in WSW 7.6 mph 9.0 mph 95 % 0.0 in
06:49 0.3 °F 0.0 °F 998.9 in WSW 7.9 mph 10.5 mph 95 % 0.0 in
06:54 0.3 °F 0.0 °F 998.9 in WSW 4.7 mph 10.5 mph 96 % 0.0 in
06:58 0.3 °F 0.0 °F 998.9 in WSW 8.7 mph 10.5 mph 96 % 0.0 in
07:03 0.3 °F 0.0 °F 998.9 in WSW 9.7 mph 10.5 mph 97 % 0.0 in
07:06 0.4 °F 0.0 °F 998.9 in WSW 9.0 mph 12.2 mph 97 % 0.0 in
07:11 0.4 °F 0.0 °F 999.9 in WSW 5.0 mph 12.2 mph 97 % 0.0 in
07:13 0.4 °F 0.0 °F 999.9 in West 6.1 mph 12.2 mph 97 % 0.0 in
07:17 0.4 °F 0.0 °F 999.9 in West 9.0 mph 10.5 mph 97 % 0.0 in
07:19 0.4 °F 0.0 °F 999.9 in West 4.7 mph 10.5 mph 97 % 0.0 in
07:24 0.3 °F 0.0 °F 999.9 in WSW 6.9 mph 9.7 mph 97 % 0.0 in
07:27 0.2 °F 0.0 °F 998.9 in West 2.1 mph 9.7 mph 97 % 0.0 in
07:32 0.2 °F 0.0 °F 998.9 in WNW 5.5 mph 9.7 mph 97 % 0.0 in
07:36 0.1 °F 0.0 °F 998.9 in Calm   7.6 mph 97 % 0.0 in
07:41 0.1 °F 0.0 °F 998.9 in West 2.1 mph 7.6 mph 98 % 0.0 in
07:42 0.1 °F 0.0 °F 998.9 in WSW 1.4 mph 7.6 mph 98 % 0.0 in
07:47 0.1 °F 0.0 °F 998.9 in Calm   4.3 mph 98 % 0.0 in
07:51 0.0 °F -1.0 °F 998.9 in Calm   4.3 mph 98 % 0.0 in
07:56 -0.2 °F -1.0 °F 998.9 in WSW 5.5 mph 5.5 mph 97 % 0.0 in
08:00 -0.3 °F -1.0 °F 998.9 in Calm   5.5 mph 97 % 0.0 in
08:02 -0.3 °F -1.0 °F 998.9 in Calm   5.5 mph 97 % 0.0 in
08:07 -0.4 °F -1.0 °F 998.9 in Calm   5.0 mph 97 % 0.0 in
08:12 -0.5 °F -2.0 °F 998.9 in Calm   5.0 mph 97 % 0.0 in
08:13 -0.5 °F -2.0 °F 998.9 in Calm   5.0 mph 97 % 0.0 in
08:18 -0.5 °F -2.0 °F 998.9 in Calm   6.1 mph 97 % 0.0 in
08:20 -0.5 °F -1.0 °F 998.9 in WSW 6.9 mph 6.9 mph 98 % 0.0 in
08:25 -0.4 °F -1.0 °F 998.9 in WSW 6.1 mph 10.5 mph 98 % 0.0 in
08:30 -0.4 °F -1.0 °F 998.9 in WSW 4.7 mph 10.5 mph 98 % 0.0 in
08:32 -0.4 °F -1.0 °F 998.9 in West 6.1 mph 9.0 mph 98 % 0.0 in
08:37 -0.4 °F -1.0 °F 998.9 in WSW 7.6 mph 8.7 mph 98 % 0.0 in
08:42 -0.3 °F -1.0 °F 999.9 in Calm   8.7 mph 98 % 0.0 in
08:43 -0.3 °F -1.0 °F 999.9 in Calm   8.7 mph 98 % 0.0 in
08:45 -0.3 °F -1.0 °F 999.9 in WSW 6.4 mph 8.7 mph 98 % 0.0 in
08:50 -0.2 °F -1.0 °F 999.9 in West 7.2 mph 11.6 mph 98 % 0.0 in
08:55 -0.2 °F -1.0 °F 999.9 in Calm   11.6 mph 98 % 0.0 in
08:57 -0.2 °F -1.0 °F 999.9 in West 6.4 mph 11.6 mph 98 % 0.0 in
08:58 -0.1 °F -1.0 °F 999.9 in Calm   9.0 mph 98 % 0.0 in
09:03 0.0 °F -1.0 °F 999.9 in WNW 2.6 mph 7.6 mph 98 % 0.0 in
09:05 0.0 °F -1.0 °F 999.9 in West 5.5 mph 7.6 mph 98 % 0.0 in
09:10 0.1 °F 0.0 °F 999.9 in West 7.6 mph 7.6 mph 98 % 0.0 in
09:15 0.2 °F 0.0 °F 999.9 in WSW 1.8 mph 7.6 mph 98 % 0.0 in
09:17 0.2 °F 0.0 °F 999.9 in Calm   7.6 mph 98 % 0.0 in
09:22 0.3 °F 1.0 °F 999.9 in Calm   10.5 mph 98 % 0.0 in
09:25 0.3 °F 1.0 °F 999.9 in West 9.7 mph 10.5 mph 98 % 0.0 in
09:27 0.4 °F 1.0 °F 1000.9 in West 5.8 mph 10.5 mph 98 % 0.0 in
09:32 0.4 °F 1.0 °F 1000.9 in West 6.1 mph 10.1 mph 98 % 0.0 in
09:34 0.5 °F 1.0 °F 1000.9 in WSW 5.8 mph 10.1 mph 98 % 0.0 in
09:39 0.5 °F 1.0 °F 1000.9 in West 7.6 mph 9.7 mph 98 % 0.0 in
09:43 0.6 °F 1.0 °F 1000.9 in West 5.8 mph 12.6 mph 98 % 0.0 in
09:48 0.7 °F 1.0 °F 1000.9 in West 6.9 mph 12.6 mph 98 % 0.0 in
09:52 0.7 °F 1.0 °F 1000.9 in WSW 6.4 mph 11.9 mph 98 % 0.0 in
09:53 0.7 °F 1.0 °F 1000.9 in SW 5.8 mph 11.9 mph 98 % 0.0 in
09:58 0.8 °F 1.0 °F 1000.9 in West 4.0 mph 11.9 mph 98 % 0.0 in
09:59 0.8 °F 1.0 °F 1000.9 in West 9.0 mph 11.9 mph 98 % 0.0 in
10:04 0.9 °F 1.0 °F 1000.9 in WSW 3.5 mph 11.6 mph 98 % 0.0 in
10:05 0.9 °F 1.0 °F 1000.9 in West 10.1 mph 11.6 mph 98 % 0.0 in
10:10 1.0 °F 1.0 °F 1000.9 in WSW 7.6 mph 14.0 mph 98 % 0.0 in
10:11 1.0 °F 1.0 °F 1000.9 in West 6.4 mph 14.0 mph 98 % 0.0 in
10:15 1.2 °F 1.0 °F 1000.9 in WSW 5.0 mph 14.0 mph 98 % 0.0 in
10:20 1.4 °F 1.0 °F 1000.9 in WSW 6.9 mph 13.0 mph 98 % 0.0 in
10:21 1.5 °F 2.0 °F 1000.9 in West 4.0 mph 13.0 mph 98 % 0.0 in
10:26 1.7 °F 2.0 °F 1000.9 in WSW 10.1 mph 13.7 mph 98 % 0.0 in
10:28 1.7 °F 2.0 °F 1000.9 in WSW 6.1 mph 13.7 mph 98 % 0.0 in
10:32 1.9 °F 2.0 °F 1000.9 in WNW 8.7 mph 13.7 mph 98 % 0.0 in
10:35 2.0 °F 2.0 °F 1000.9 in Calm   13.7 mph 98 % 0.0 in
10:40 2.1 °F 2.0 °F 1000.9 in West 4.3 mph 12.6 mph 98 % 0.0 in
10:41 2.2 °F 2.0 °F 999.9 in West 9.0 mph 12.6 mph 98 % 0.0 in
10:46 2.4 °F 3.0 °F 999.9 in West 6.4 mph 15.8 mph 98 % 0.0 in
10:48 2.5 °F 3.0 °F 999.9 in West 7.9 mph 15.8 mph 98 % 0.0 in
10:53 2.7 °F 3.0 °F 999.9 in Calm   13.7 mph 98 % 0.0 in
10:55 2.7 °F 3.0 °F 999.9 in WSW 9.3 mph 13.7 mph 98 % 0.0 in
11:00 3.0 °F 3.0 °F 1000.9 in West 7.9 mph 15.1 mph 98 % 0.0 in
11:05 3.0 °F 3.0 °F 1000.9 in West 14.3 mph 15.1 mph 98 % 0.0 in
11:10 3.3 °F 3.0 °F 999.9 in WSW 8.7 mph 14.3 mph 98 % 0.0 in
11:14 3.4 °F 3.0 °F 999.9 in West 5.8 mph 14.3 mph 98 % 0.0 in
11:16 3.4 °F 3.0 °F 999.9 in West 6.4 mph 13.7 mph 98 % 0.0 in
11:21 3.6 °F 4.0 °F 999.9 in WSW 15.4 mph 18.0 mph 98 % 0.0 in
11:24 3.6 °F 4.0 °F 999.9 in West 9.3 mph 18.0 mph 98 % 0.0 in
11:26 3.6 °F 3.0 °F 999.9 in West 9.7 mph 18.0 mph 97 % 0.0 in
11:31 3.8 °F 3.0 °F 999.9 in West 9.3 mph 17.2 mph 97 % 0.0 in
11:33 3.9 °F 4.0 °F 999.9 in West 9.0 mph 17.2 mph 97 % 0.0 in
11:37 4.1 °F 4.0 °F 999.9 in SW 11.9 mph 17.2 mph 96 % 0.0 in
11:38 4.1 °F 4.0 °F 999.9 in SW 11.9 mph 17.2 mph 96 % 0.0 in
11:43 4.1 °F 3.0 °F 1000.9 in West 12.6 mph 16.6 mph 95 % 0.0 in
11:48 4.2 °F 3.0 °F 1000.9 in West 20.1 mph 20.6 mph 94 % 0.0 in
11:49 4.2 °F 3.0 °F 1000.9 in West 16.9 mph 20.6 mph 94 % 0.0 in
11:51 4.3 °F 3.0 °F 1000.9 in WNW 5.0 mph 20.6 mph 93 % 0.0 in
11:56 4.4 °F 3.0 °F 1000.9 in West 9.0 mph 20.6 mph 92 % 0.0 in
11:58 4.4 °F 3.0 °F 1000.9 in West 12.6 mph 20.6 mph 92 % 0.0 in
11:59 4.4 °F 3.0 °F 1000.9 in West 17.2 mph 17.7 mph 92 % 0.0 in
12:04 4.6 °F 3.0 °F 1000.9 in West 14.0 mph 21.2 mph 90 % 0.0 in
12:09 4.7 °F 3.0 °F 1000.9 in WSW 11.9 mph 21.2 mph 89 % 0.0 in
12:10 4.7 °F 3.0 °F 1000.9 in WSW 11.9 mph 21.2 mph 89 % 0.0 in
12:15 4.7 °F 3.0 °F 1000.9 in West 5.5 mph 20.6 mph 88 % 0.0 in
12:17 4.8 °F 3.0 °F 1000.9 in WSW 14.3 mph 20.6 mph 87 % 0.0 in
12:25 4.9 °F 3.0 °F 1000.9 in West 14.0 mph 17.7 mph 87 % 0.0 in
12:26 5.0 °F 3.0 °F 1000.9 in WSW 9.3 mph 17.7 mph 86 % 0.0 in
12:31 5.0 °F 3.0 °F 1000.9 in West 12.2 mph 21.2 mph 86 % 0.0 in
12:36 5.0 °F 3.0 °F 1000.9 in SW 23.8 mph 24.5 mph 84 % 0.0 in
12:40 5.1 °F 3.0 °F 1000.9 in West 13.0 mph 24.5 mph 83 % 0.0 in
12:43 5.1 °F 3.0 °F 1000.9 in WSW 14.0 mph 24.5 mph 83 % 0.0 in
12:48 5.1 °F 2.0 °F 1000.9 in WSW 9.7 mph 20.6 mph 81 % 0.0 in
12:49 5.2 °F 3.0 °F 1000.9 in West 9.0 mph 20.6 mph 82 % 0.0 in
12:54 5.2 °F 2.0 °F 1000.9 in WSW 16.3 mph 21.2 mph 81 % 0.0 in
12:59 5.2 °F 2.0 °F 1000.9 in West 21.2 mph 21.2 mph 80 % 0.0 in
13:01 5.3 °F 2.0 °F 1000.9 in West 16.9 mph 21.2 mph 79 % 0.0 in
13:02 5.3 °F 2.0 °F 1000.9 in West 14.0 mph 21.2 mph 79 % 0.0 in
13:06 5.4 °F 2.0 °F 1000.9 in WSW 20.6 mph 21.2 mph 79 % 0.0 in
13:11 5.5 °F 3.0 °F 1001.9 in WSW 12.6 mph 20.6 mph 79 % 0.0 in
13:16 5.6 °F 3.0 °F 1001.9 in WSW 20.9 mph 20.9 mph 79 % 0.0 in
13:21 5.6 °F 3.0 °F 1001.9 in WSW 16.9 mph 20.9 mph 79 % 0.0 in
13:26 5.6 °F 2.0 °F 1001.9 in West 13.7 mph 20.9 mph 76 % 0.0 in
13:27 5.6 °F 2.0 °F 1001.9 in WSW 13.7 mph 20.1 mph 76 % 0.0 in
13:32 5.7 °F 2.0 °F 1001.9 in West 8.7 mph 20.1 mph 77 % 0.0 in
13:35 5.7 °F 2.0 °F 1001.9 in WSW 16.6 mph 16.9 mph 77 % 0.0 in
13:38 5.8 °F 3.0 °F 1001.9 in WSW 13.7 mph 21.6 mph 77 % 0.0 in
13:40 5.8 °F 2.0 °F 1001.9 in WSW 14.3 mph 21.6 mph 76 % 0.0 in
13:45 5.8 °F 2.0 °F 1001.9 in West 13.0 mph 21.6 mph 76 % 0.0 in
13:50 5.8 °F 2.0 °F 1001.9 in WSW 11.6 mph 21.2 mph 76 % 0.0 in
13:52 5.8 °F 2.0 °F 1001.9 in West 13.7 mph 21.2 mph 76 % 0.0 in
13:57 5.8 °F 2.0 °F 1001.9 in WSW 13.0 mph 19.8 mph 75 % 0.0 in
14:02 6.0 °F 2.0 °F 1001.9 in West 10.5 mph 17.7 mph 75 % 0.0 in
14:03 6.0 °F 2.0 °F 1001.9 in West 13.7 mph 17.7 mph 75 % 0.0 in
14:08 5.9 °F 2.0 °F 1001.9 in West 11.9 mph 17.7 mph 75 % 0.0 in
14:13 6.0 °F 2.0 °F 1001.9 in West 9.7 mph 19.8 mph 75 % 0.0 in
14:18 6.1 °F 2.0 °F 1001.9 in West 10.5 mph 19.8 mph 75 % 0.0 in
14:23 6.2 °F 3.0 °F 1001.9 in WNW 19.5 mph 19.5 mph 75 % 0.0 in
14:24 6.1 °F 2.0 °F 1001.9 in West 20.1 mph 20.1 mph 74 % 0.0 in
14:29 6.2 °F 2.0 °F 1001.9 in WSW 9.7 mph 20.1 mph 73 % 0.0 in
14:34 6.3 °F 2.0 °F 1001.9 in WSW 12.6 mph 17.7 mph 74 % 0.0 in
14:40 6.2 °F 2.0 °F 1001.9 in West 14.0 mph 20.1 mph 72 % 0.0 in
14:41 6.2 °F 2.0 °F 1001.9 in West 12.6 mph 20.1 mph 72 % 0.0 in
14:46 6.2 °F 2.0 °F 1001.9 in SW 14.0 mph 20.1 mph 72 % 0.0 in
14:49 6.2 °F 2.0 °F 1001.9 in WNW 15.4 mph 25.3 mph 72 % 0.0 in
14:52 6.2 °F 2.0 °F 1001.9 in WSW 6.9 mph 25.3 mph 71 % 0.0 in
14:57 6.2 °F 2.0 °F 1001.9 in WSW 11.9 mph 25.3 mph 72 % 0.0 in
14:58 6.2 °F 2.0 °F 1001.9 in West 13.0 mph 19.5 mph 72 % 0.0 in
15:05 6.3 °F 2.0 °F 1001.9 in West 12.6 mph 21.2 mph 72 % 0.0 in
15:07 6.3 °F 2.0 °F 1001.9 in West 12.2 mph 21.2 mph 72 % 0.0 in
15:11 6.2 °F 2.0 °F 1001.9 in West 10.1 mph 20.1 mph 73 % 0.0 in
15:13 6.2 °F 2.0 °F 1001.9 in West 17.7 mph 20.1 mph 72 % 0.0 in
15:16 6.2 °F 2.0 °F 1001.9 in West 12.2 mph 18.3 mph 72 % 0.0 in
15:21 6.1 °F 2.0 °F 1001.9 in WNW 8.7 mph 20.9 mph 72 % 0.0 in
15:26 6.2 °F 2.0 °F 1002.9 in WSW 12.6 mph 20.9 mph 72 % 0.0 in
15:28 6.1 °F 2.0 °F 1002.9 in West 17.2 mph 20.9 mph 72 % 0.0 in
15:33 6.1 °F 2.0 °F 1002.9 in West 17.7 mph 20.9 mph 72 % 0.0 in
15:35 6.0 °F 2.0 °F 1002.9 in WSW 10.1 mph 20.9 mph 72 % 0.0 in
15:36 6.0 °F 2.0 °F 1002.9 in West 10.5 mph 20.9 mph 72 % 0.0 in
15:41 6.0 °F 2.0 °F 1002.9 in West 12.6 mph 19.8 mph 73 % 0.0 in
15:42 6.0 °F 2.0 °F 1002.9 in West 4.0 mph 19.8 mph 73 % 0.0 in
15:46 6.0 °F 2.0 °F 1002.9 in WSW 9.0 mph 16.3 mph 74 % 0.0 in
15:50 5.9 °F 2.0 °F 1002.9 in West 4.0 mph 12.6 mph 74 % 0.0 in
15:55 5.8 °F 2.0 °F 1002.9 in West 2.6 mph 10.1 mph 75 % 0.0 in
15:56 5.7 °F 2.0 °F 1002.9 in West 1.8 mph 10.1 mph 75 % 0.0 in
16:01 5.6 °F 2.0 °F 1002.9 in West 10.5 mph 17.2 mph 74 % 0.0 in
16:02 5.5 °F 2.0 °F 1002.9 in WSW 9.7 mph 17.2 mph 74 % 0.0 in
16:04 5.4 °F 1.0 °F 1002.9 in West 9.3 mph 17.2 mph 74 % 0.0 in
16:08 5.3 °F 1.0 °F 1002.9 in West 8.7 mph 13.7 mph 74 % 0.0 in
16:11 5.1 °F 1.0 °F 1002.9 in West 7.6 mph 11.1 mph 74 % 0.0 in
16:13 5.0 °F 1.0 °F 1002.9 in West 6.1 mph 11.1 mph 75 % 0.0 in
16:18 4.8 °F 1.0 °F 1002.9 in Calm   10.1 mph 75 % 0.0 in
16:23 4.7 °F 1.0 °F 1002.9 in WSW 9.0 mph 11.6 mph 75 % 0.0 in
16:25 4.6 °F 1.0 °F 1002.9 in WSW 9.7 mph 11.6 mph 76 % 0.0 in
16:29 4.5 °F 1.0 °F 1002.9 in West 6.9 mph 12.6 mph 76 % 0.0 in
16:30 4.4 °F 1.0 °F 1002.9 in West 6.9 mph 12.6 mph 76 % 0.0 in
16:35 4.3 °F 1.0 °F 1002.9 in WSW 10.1 mph 10.5 mph 76 % 0.0 in
16:39 4.1 °F 0.0 °F 1002.9 in West 9.0 mph 10.5 mph 76 % 0.0 in
16:44 3.9 °F 1.0 °F 1001.9 in Calm   10.5 mph 77 % 0.0 in
16:50 3.6 °F 0.0 °F 1001.9 in Calm   7.6 mph 77 % 0.0 in
16:52 3.4 °F 0.0 °F 1001.9 in Calm   6.1 mph 77 % 0.0 in
16:58 3.1 °F 0.0 °F 1002.9 in Calm   6.1 mph 77 % 0.0 in
17:01 3.1 °F 0.0 °F 1002.9 in West 5.0 mph 5.5 mph 78 % 0.0 in
17:06 2.9 °F 0.0 °F 1002.9 in Calm   6.1 mph 79 % 0.0 in
17:08 2.8 °F 0.0 °F 1002.9 in Calm   6.9 mph 79 % 0.0 in
17:13 2.7 °F 0.0 °F 1003.9 in WSW 6.1 mph 6.9 mph 79 % 0.0 in
17:18 2.4 °F 0.0 °F 1003.9 in Calm   6.1 mph 80 % 0.0 in
17:19 2.4 °F 0.0 °F 1003.9 in Calm   6.1 mph 80 % 0.0 in
17:24 2.1 °F -1.0 °F 1003.9 in Calm   5.5 mph 80 % 0.0 in
17:28 2.0 °F -1.0 °F 1003.9 in Calm   4.3 mph 80 % 0.0 in
17:33 1.9 °F -1.0 °F 1003.9 in West 7.9 mph 7.9 mph 81 % 0.0 in
17:37 1.9 °F -1.0 °F 1003.9 in WSW 7.9 mph 9.0 mph 82 % 0.0 in
17:38 1.9 °F -1.0 °F 1003.9 in WSW 9.3 mph 9.3 mph 83 % 0.0 in
17:44 2.0 °F 0.0 °F 1003.9 in West 8.7 mph 11.9 mph 84 % 0.0 in
17:49 2.0 °F 0.0 °F 1003.9 in WSW 8.7 mph 11.9 mph 85 % 0.0 in
17:50 2.0 °F 0.0 °F 1003.9 in West 6.9 mph 11.9 mph 85 % 0.0 in
17:51 2.0 °F 0.0 °F 1003.9 in West 1.4 mph 11.9 mph 85 % 0.0 in
17:56 2.1 °F 0.0 °F 1003.9 in Calm   10.1 mph 86 % 0.0 in
17:58 2.1 °F 1.0 °F 1003.9 in West 7.9 mph 10.1 mph 87 % 0.0 in
18:01 2.1 °F 1.0 °F 1003.9 in WSW 7.9 mph 10.1 mph 87 % 0.0 in
18:06 2.0 °F 0.0 °F 1003.9 in Calm   9.7 mph 86 % 0.0 in
18:07 2.0 °F 0.0 °F 1003.9 in Calm   9.3 mph 86 % 0.0 in
18:12 1.9 °F 0.0 °F 1005.0 in Calm   7.9 mph 87 % 0.0 in
18:15 1.9 °F 0.0 °F 1005.0 in Calm   2.6 mph 87 % 0.0 in
18:19 1.7 °F 0.0 °F 1005.0 in Calm   2.6 mph 86 % 0.0 in
18:24 1.5 °F 0.0 °F 1005.0 in Calm     86 % 0.0 in
18:29 1.3 °F -1.0 °F 1005.0 in Calm     86 % 0.0 in
18:34 1.1 °F -1.0 °F 1005.0 in Calm     86 % 0.0 in
18:35 1.1 °F -1.0 °F 1005.0 in Calm     86 % 0.0 in
18:40 1.0 °F -1.0 °F 1005.0 in Calm     86 % 0.0 in
18:41 0.9 °F -1.0 °F 1005.0 in SW 4.0 mph 4.0 mph 87 % 0.0 in
18:46 0.8 °F -1.0 °F 1005.0 in Calm   4.3 mph 87 % 0.0 in
18:50 0.7 °F -1.0 °F 1005.0 in Calm   4.3 mph 87 % 0.0 in
18:55 0.6 °F -1.0 °F 1005.0 in Calm     88 % 0.0 in
18:56 0.6 °F -1.0 °F 1005.0 in Calm     88 % 0.0 in
19:01 0.7 °F -1.0 °F 1005.0 in Calm   4.7 mph 89 % 0.0 in
19:05 0.7 °F -1.0 °F 1005.0 in Calm   4.7 mph 89 % 0.0 in
19:07 0.7 °F -1.0 °F 1005.0 in Calm   4.7 mph 89 % 0.0 in
19:10 0.7 °F -1.0 °F 1005.0 in Calm     89 % 0.0 in
19:14 0.7 °F -1.0 °F 1003.9 in Calm     89 % 0.0 in
19:16 0.7 °F -1.0 °F 1003.9 in Calm     89 % 0.0 in
19:21 0.6 °F -1.0 °F 1003.9 in Calm     90 % 0.0 in
19:22 0.6 °F -1.0 °F 1003.9 in Calm     90 % 0.0 in
19:26 0.5 °F -1.0 °F 1005.0 in Calm     90 % 0.0 in
19:31 0.6 °F -1.0 °F 1005.0 in Calm     90 % 0.0 in
19:36 0.6 °F 0.0 °F 1005.0 in Calm     91 % 0.0 in
19:40 0.5 °F 0.0 °F 1005.0 in Calm     91 % 0.0 in
19:43 0.6 °F 0.0 °F 1003.9 in Calm   2.1 mph 91 % 0.0 in
19:48 0.8 °F 0.0 °F 1003.9 in West 5.8 mph 9.0 mph 92 % 0.0 in
19:49 0.9 °F 0.0 °F 1003.9 in West 4.3 mph 9.0 mph 92 % 0.0 in
19:54 0.9 °F 0.0 °F 1003.9 in West 7.9 mph 9.0 mph 93 % 0.0 in
19:58 0.9 °F 0.0 °F 1005.0 in West 6.9 mph 9.0 mph 93 % 0.0 in
20:03 0.9 °F 0.0 °F 1005.0 in West 6.9 mph 9.0 mph 93 % 0.0 in
20:07 0.9 °F 0.0 °F 1005.0 in Calm   9.0 mph 93 % 0.0 in
20:12 0.9 °F 0.0 °F 1006.0 in West 3.2 mph 9.0 mph 93 % 0.0 in
20:16 0.8 °F 0.0 °F 1006.0 in Calm   8.7 mph 92 % 0.0 in
20:21 0.7 °F 0.0 °F 1006.0 in Calm   6.1 mph 92 % 0.0 in
20:26 0.7 °F 0.0 °F 1006.0 in West 4.0 mph 6.1 mph 92 % 0.0 in
20:31 0.6 °F 0.0 °F 1006.0 in Calm   6.4 mph 92 % 0.0 in
20:33 0.5 °F 0.0 °F 1006.0 in Calm   7.6 mph 92 % 0.0 in
20:38 0.4 °F -1.0 °F 1006.0 in Calm   7.6 mph 92 % 0.0 in
20:40 0.4 °F -1.0 °F 1006.0 in Calm   7.6 mph 92 % 0.0 in
20:45 0.4 °F -1.0 °F 1006.0 in Calm   5.5 mph 92 % 0.0 in
20:46 0.4 °F -1.0 °F 1006.0 in West 6.4 mph 6.4 mph 92 % 0.0 in
20:52 0.5 °F 0.0 °F 1006.0 in Calm   6.9 mph 93 % 0.0 in
20:57 0.5 °F 0.0 °F 1006.0 in West 5.5 mph 7.2 mph 93 % 0.0 in
21:01 0.5 °F 0.0 °F 1006.0 in WSW 6.4 mph 7.2 mph 93 % 0.0 in
21:07 0.5 °F 0.0 °F 1006.0 in West 6.1 mph 7.9 mph 93 % 0.0 in
21:12 0.6 °F 0.0 °F 1006.0 in Calm   7.6 mph 94 % 0.0 in
21:15 0.6 °F 0.0 °F 1006.0 in Calm   6.9 mph 94 % 0.0 in
21:20 0.4 °F 0.0 °F 1006.0 in Calm   5.5 mph 93 % 0.0 in
21:25 0.4 °F 0.0 °F 1006.0 in Calm     93 % 0.0 in
21:27 0.4 °F 0.0 °F 1006.0 in Calm     93 % 0.0 in
21:32 0.2 °F -1.0 °F 1006.0 in Calm     93 % 0.0 in
21:37 0.1 °F -1.0 °F 1006.0 in Calm     92 % 0.0 in
21:40 0.1 °F -1.0 °F 1007.0 in Calm     93 % 0.0 in
21:42 0.1 °F -1.0 °F 1007.0 in Calm     93 % 0.0 in
21:47 0.2 °F -1.0 °F 1007.0 in Calm     93 % 0.0 in
21:50 0.3 °F 0.0 °F 1007.0 in Calm     94 % 0.0 in
21:55 0.3 °F 0.0 °F 1007.0 in Calm     94 % 0.0 in
22:00 0.3 °F 0.0 °F 1007.0 in Calm     94 % 0.0 in
22:05 0.4 °F 0.0 °F 1007.0 in Calm     94 % 0.0 in
22:06 0.4 °F 0.0 °F 1007.0 in Calm     94 % 0.0 in
22:07 0.4 °F 0.0 °F 1007.0 in Calm     94 % 0.0 in
22:12 0.3 °F 0.0 °F 1007.0 in Calm     94 % 0.0 in
22:13 0.3 °F 0.0 °F 1007.0 in Calm     94 % 0.0 in
22:18 0.2 °F -1.0 °F 1007.0 in Calm     94 % 0.0 in
22:22 0.2 °F -1.0 °F 1007.0 in Calm     94 % 0.0 in
22:26 0.3 °F 0.0 °F 1007.0 in West 4.3 mph 4.3 mph 94 % 0.0 in
22:30 0.3 °F 0.0 °F 1007.0 in Calm   6.4 mph 94 % 0.0 in
22:33 0.3 °F 0.0 °F 1007.0 in West 2.6 mph 6.4 mph 94 % 0.0 in
22:36 0.3 °F 0.0 °F 1007.0 in West 5.0 mph 6.4 mph 94 % 0.0 in
22:41 0.4 °F 0.0 °F 1007.0 in Calm   6.4 mph 95 % 0.0 in
22:43 0.4 °F 0.0 °F 1007.0 in Calm   6.4 mph 95 % 0.0 in
22:48 0.4 °F 0.0 °F 1007.0 in Calm   6.1 mph 95 % 0.0 in
22:53 0.4 °F 0.0 °F 1007.0 in Calm   5.8 mph 94 % 0.0 in
22:58 0.3 °F 0.0 °F 1007.0 in Calm   6.4 mph 94 % 0.0 in
22:59 0.3 °F 0.0 °F 1007.0 in West 1.8 mph 6.4 mph 94 % 0.0 in
23:04 0.3 °F 0.0 °F 1007.0 in West 3.5 mph 6.4 mph 94 % 0.0 in
23:06 0.2 °F -1.0 °F 1007.0 in Calm   6.4 mph 94 % 0.0 in
23:11 0.0 °F -2.0 °F 1006.0 in Calm   5.5 mph 93 % 0.0 in
23:13 0.0 °F -2.0 °F 1006.0 in Calm   5.5 mph 93 % 0.0 in
23:17 -0.3 °F -2.0 °F 1006.0 in Calm     92 % 0.0 in
23:22 -0.6 °F -3.0 °F 1006.0 in Calm     91 % 0.0 in
23:24 -0.7 °F -3.0 °F 1006.0 in Calm     91 % 0.0 in
23:29 -0.9 °F -3.0 °F 1007.0 in Calm   4.0 mph 91 % 0.0 in
23:34 -1.0 °F -3.0 °F 1007.0 in Calm   4.0 mph 91 % 0.0 in
23:39 -1.0 °F -3.0 °F 1007.0 in WSW 6.4 mph 6.4 mph 93 % 0.0 in
23:40 -0.9 °F -3.0 °F 1007.0 in SW 4.7 mph 6.4 mph 92 % 0.0 in
23:41 -0.9 °F -3.0 °F 1006.0 in Calm   6.4 mph 93 % 0.0 in
23:46 -0.8 °F -3.0 °F 1006.0 in Calm   6.9 mph 94 % 0.0 in
23:47 -0.8 °F -3.0 °F 1006.0 in Calm   6.9 mph 94 % 0.0 in
23:52 -0.7 °F -2.0 °F 1006.0 in Calm   6.9 mph 95 % 0.0 in
23:53 -0.7 °F -2.0 °F 1006.0 in Calm   6.9 mph 95 % 0.0 in
23:58 -0.8 °F -2.0 °F 1007.0 in Calm     95 % 0.0 in
Le Gheer Warneton
Courtoisie de Weather Underground - 2.75 mb

Mise a jour : 24/02/2018 22:47:11
Généré par Cumulus 1.9.4 (1099)